Weather History for YPXM - April, 2013

Change the Weather History Date:

Friday, April 12, 2013

  Actual Average Record
Temperature  
Mean Temperature 80 °F -  
Max Temperature 84 °F 80 °F 86 °F (2015)
Min Temperature 75 °F 73 °F 32 °F (2005)
Cooling Degree Days 14    
Growing Degree Days 30 (Base 50)    
Moisture  
Dew Point 75 °F    
Average Humidity 89    
Maximum Humidity 97    
Minimum Humidity 49    
Precipitation  
Precipitation 0.43 in - - ()
Sea Level Pressure  
Sea Level Pressure 29.81 in    
Wind  
Wind Speed 3 mph ()    
Max Wind Speed 6 mph    
Max Gust Speed -    
Visibility 5.5 miles    
Events Rain    
Averages and records for this station are not official NWS values.
T = Trace of Precipitation, MM = Missing Value Source: Averaged Metar Reports

Daily Weather History Graph

Daily Weather History Graph

Search for Another Location

Airport or City:

Trip Planner

Search our weather history database for the weather conditions in past years. The results will help you decide how hot, cold, wet, or windy it might be!

Date:

Astronomy

Apr. 12, 2013 Rise Set
Actual Time 6:01 AM CXT 5:54 PM CXT
Civil Twilight 5:39 AM CXT 6:16 PM CXT
Nautical Twilight 5:15 AM CXT 6:40 PM CXT
Astronomical Twilight 4:50 AM CXT 7:05 PM CXT
Moon 7:20 AM CXT (4/12) 7:18 PM CXT (4/12)
Length of Visible Light 12h 36m
Length of Day
11h 53m
Waxing Crescent, 3% of the Moon is Illuminated
Apr 12
Waxing Crescent
Apr 18
First Quarter
Apr 26
Full
May 2
Last Quarter
May 10
New

Hourly Weather History & Observations

Time (CXT) Temp. Heat Index Dew Point Humidity Pressure Visibility Wind Dir Wind Speed Gust Speed Precip Events Conditions
12:00 AM 77 °F - 76 °F 95% 29.81 in - WNW 2.3 mph - -  
12:00 AM 77.0 °F - 75.2 °F 94% 29.83 in 6.2 mi WNW 2.3 mph - N/A   Drizzle
1:00 AM 77 °F - 76 °F 94% 29.78 in - WNW 4.6 mph - -  
1:00 AM 77.0 °F - 75.2 °F 94% 29.80 in 6.2 mi WNW 4.6 mph - N/A   Mostly Cloudy
2:00 AM 77.0 °F - 75.2 °F 94% 29.80 in 6.2 mi NNW 4.6 mph - N/A Rain Light Rain Showers
3:00 AM 76 °F - 75 °F 97% 29.75 in - West 3.5 mph - -   Overcast
3:00 AM 77.0 °F - 75.2 °F 94% 29.80 in 6.2 mi West 3.5 mph - N/A   Mostly Cloudy
4:00 AM 76 °F - 74 °F 91% 29.75 in - WSW 2.3 mph - -  
4:00 AM 75.2 °F - 73.4 °F 94% 29.80 in 6.2 mi WSW 2.3 mph - N/A   Scattered Clouds
4:04 AM 75.2 °F - 73.4 °F 94% 29.80 in 6.2 mi SW 3.5 mph - N/A   Scattered Clouds
4:09 AM 77.0 °F - 73.4 °F 89% 29.80 in 4.3 mi WSW 3.5 mph - N/A   Mostly Cloudy
4:10 AM 77.0 °F - 73.4 °F 89% 29.80 in 3.1 mi WSW 3.5 mph - N/A   Mostly Cloudy
4:16 AM 77.0 °F - 73.4 °F 89% 29.80 in 0.6 mi SW 3.5 mph - N/A   Mostly Cloudy
4:26 AM 75.2 °F - 71.6 °F 89% 29.80 in 0.6 mi WSW 3.5 mph - N/A   Mostly Cloudy
5:00 AM 75.2 °F - 71.6 °F 89% 29.80 in 6.2 mi West 4.6 mph - N/A   Unknown
6:00 AM 76 °F - 74 °F 91% 29.77 in - WSW 4.6 mph - -   Overcast
6:00 AM 75.2 °F - 73.4 °F 94% 29.80 in - WSW 4.6 mph - N/A   Overcast
7:00 AM 76 °F - 74 °F 92% 29.78 in - WSW 4.6 mph - -  
7:00 AM 75.2 °F - 73.4 °F 94% 29.83 in 6.2 mi WSW 4.6 mph - N/A   Scattered Clouds
8:00 AM 78.8 °F - 73.4 °F 83% 29.83 in 6.2 mi SSW 4.6 mph - N/A   Unknown
9:00 AM 80 °F - 76 °F 84% 29.81 in - WSW 3.5 mph - -   Overcast
9:00 AM 80.6 °F 86.2 °F 75.2 °F 84% 29.86 in 6.2 mi WSW 3.5 mph - N/A   Overcast
10:00 AM 79 °F - 76 °F 89% 29.82 in - Calm Calm - -  
10:00 AM 78.8 °F - 77.0 °F 94% 29.86 in 3.1 mi Calm Calm - N/A Rain Heavy Rain
10:43 AM 77.0 °F - 75.2 °F 94% 29.86 in 4.3 mi WNW 4.6 mph - N/A Rain Rain
10:51 AM 78.8 °F - 77.0 °F 94% 29.86 in 5.0 mi West 2.3 mph - N/A Rain Light Rain
11:00 AM 78.8 °F - 77.0 °F 94% 29.86 in 6.2 mi SW 3.5 mph - N/A   Drizzle
12:00 PM 80 °F - 76 °F 82% 29.79 in - South 2.3 mph - -   Overcast
12:00 PM 80.6 °F 86.2 °F 75.2 °F 84% 29.83 in 6.2 mi South 2.3 mph - N/A   Overcast
1:00 PM 83 °F - 77 °F 79% 29.78 in - SSE 5.8 mph - -  
1:00 PM 82.4 °F 90.9 °F 77.0 °F 84% 29.83 in 6.2 mi SSE 5.8 mph - N/A   Scattered Clouds
2:00 PM 82.4 °F 92.4 °F 78.8 °F 89% 29.80 in 6.2 mi SE 4.6 mph - N/A   Scattered Clouds
3:00 PM 82 °F - 80 °F 90% 29.75 in - South 4.6 mph - -  
3:00 PM 82.4 °F 92.4 °F 78.8 °F 89% 29.80 in 6.2 mi South 4.6 mph - N/A   Scattered Clouds
4:00 PM 80.6 °F 88.1 °F 78.8 °F 94% 29.80 in 6.2 mi South 3.5 mph - N/A   Unknown
5:00 PM 80.6 °F 88.1 °F 78.8 °F 94% 29.80 in 6.2 mi SSW 3.5 mph - N/A   Unknown
6:00 PM 79 °F - 63 °F 49% 29.78 in - Calm Calm - -  
6:00 PM 78.8 °F - 62.6 °F 57% 29.83 in 6.2 mi Calm Calm - N/A   Scattered Clouds
7:00 PM 77 °F - 70 °F 73% 29.79 in - Calm Calm - -  
7:00 PM 77.0 °F - 69.8 °F 78% 29.83 in 6.2 mi Calm Calm - N/A   Unknown
8:00 PM 77.0 °F - 75.2 °F 94% 29.86 in 6.2 mi SW 3.5 mph - N/A   Unknown
9:00 PM 77 °F - 75 °F 93% 29.83 in - Calm Calm - -  
9:00 PM 77.0 °F - 75.2 °F 94% 29.86 in 6.2 mi Calm Calm - N/A   Scattered Clouds
10:00 PM 77 °F - 75 °F 92% 29.85 in - Calm Calm - -  
10:00 PM 77.0 °F - 75.2 °F 94% 29.89 in 6.2 mi Calm Calm - N/A   Unknown
11:00 PM 77.0 °F - 75.2 °F 94% 29.89 in 6.2 mi SSW 1.2 mph - N/A Rain Light Rain